Location: Cisewo
(53.3833°N, 14.9000°E)
Time: 12:14:31
(UTC+00:00)

Cosmos 1869 - Pass Details

Date: 18 April 2021
Orbit: 519 x 562 km, 82.5° (Epoch: 14 May)

Event Time Altitude Azimuth Distance (km) Brightness Sun altitude
Exits shadow 21:18:30 39° 235° (SW) 822 4.1 -22.0°
Maximum altitude 21:19:35 53° 285° (WNW) 677 3.9 -22.0°
Drops below altitude 10° 21:23:29 10° 3° (N) 1,808 6.8 -22.3°
Sets 21:25:40 0° 8° (N) 2,697 7.7 -22.4°
